Location: Charing Cross
(51.5078°N, 0.1220°W)
Time: 05:54:14
(UTC+00:00)

Daily predictions for brighter satellites

Satellite Brightness Start Highest point End
(mag) Time Altitude Azimuth Time Altitude Azimuth Time Altitude Azimuth
SL-4 R/B 2.8 00:01:58 10° W 00:05:36 32° SSW 00:06:37 28° S
Cosmos 1825 2.0 00:04:51 32° SSE 00:06:12 63° E 00:09:37 10° NNE
Cosmos 2154 Rocket 4.3 00:07:15 21° SSE 00:11:29 59° E 00:17:39 10° NNE
Cosmos 2297 Rocket 2.2 00:09:02 18° SSW 00:13:17 85° WNW 00:18:59 10° NNE
Okean 1 Rocket 3.0 00:09:11 10° N 00:13:34 88° E 00:16:03 25° S
NOSS 3-2 (A) 4.4 00:12:22 19° SSE 00:14:51 27° ESE 00:19:48 10° ENE
Cosmos 2219 4.1 00:14:01 20° SSE 00:17:10 36° ESE 00:22:16 10° NE
Aureole 1 Rocket 4.4 00:17:04 18° SE 00:18:45 24° E 00:22:17 10° NE
PSLV R/B 3.7 00:14:40 10° N 00:18:53 65° WNW 00:21:22 23° SSW
ATLAS CENTAUR R/B 4.2 00:21:05 10° NW 00:23:04 14° NNW 00:25:05 10° NNE
Cosmos 1354 Rocket 4.2 00:25:11 19° SW 00:29:02 72° WNW 00:34:22 10° NNE
Resurs 1-4 Rocket 4.4 00:30:26 10° NE 00:33:01 14° E 00:35:35 10° ESE
H-2A R/B 2.1 00:29:10 10° N 00:33:27 71° WNW 00:35:54 24° SSW
Cosmos 2084 Rocket 3.3 00:31:32 21° SW 00:34:19 84° SE 00:38:27 10° NE
Cosmos 1975 Rocket 3.9 00:37:42 19° SSE 00:40:25 40° E 00:44:33 10° NNE
Cosmos 292 Rocket 4.4 00:40:12 22° SSE 00:42:57 44° ESE 00:47:32 10° NE
Cosmos 2263 Rocket 2.9 00:42:06 20° S 00:45:33 42° ESE 00:50:46 10° NE
BlueWalker 3 2.0 00:43:35 10° W 00:47:20 73° N 00:51:05 10° ENE
Orbus 7S? 3.0 00:45:33 10° WNW 00:48:12 66° NNE 00:51:29 10° ESE
BREEZE-M DEB (TANK) 3.7 00:45:36 10° WSW 00:48:38 68° S 00:57:03 10° E
Cosmos 1455 Rocket 3.0 00:45:34 10° N 00:50:02 90° NNE 00:52:57 21° S
Cosmos 332 Rocket 4.1 00:48:13 19° SW 00:51:43 63° WNW 00:56:35 10° NNE
Okean 2 Rocket 4.4 00:49:13 10° NNW 00:53:00 27° W 00:55:21 18° SW
Cosmos 2074 Rocket 4.3 00:49:56 19° SSW 00:54:26 60° WNW 01:00:37 10° N
Cosmos 1680 Rocket 4.0 00:51:04 10° NNW 00:56:13 59° ENE 01:01:21 10° SE
Cosmos 2341 Rocket 4.4 00:56:40 16° SSE 01:01:34 57° E 01:07:39 10° NNE
Cosmos 1818 3.6 00:56:30 10° NW 01:02:02 90° NW 01:07:31 10° SE
Helios 1A Rocket 2.7 01:02:09 20° SSE 01:04:43 86° ENE 01:08:33 10° NNW
Cosmos 1025 Rocket 3.2 01:02:30 22° SSW 01:05:09 64° WNW 01:09:28 10° N
USA 234 4.0 01:00:21 10° E 01:06:43 56° N 01:13:05 10° WNW
Cosmos 1461 4.0 01:06:44 19° SSE 01:08:37 28° ESE 01:12:00 10° ENE
COSMOS 2455 4.1 01:03:48 10° WSW 01:09:25 39° NW 01:15:04 10° NNE
Cosmos 990 Rocket 4.1 01:08:07 19° SW 01:11:52 69° WNW 01:17:01 10° NNE
TIMED 4.5 01:10:13 22° SSW 01:12:56 80° ESE 01:17:17 10° NNE
Cosmos 1892 4.4 01:11:24 13° WSW 01:13:34 20° WNW 01:16:17 10° NNW
CENTAUR R/B 2.6 01:11:48 16° SW 01:16:43 89° SE 01:24:05 10° NE
SL-19 R/B 3.6 01:13:45 10° NNE 01:16:49 72° ESE 01:18:11 27° S
In-Cosmos 22 Rocket 4.3 01:14:28 18° S 01:18:49 84° ESE 01:24:42 10° NNE
IDEFIX/ARIANE 42P 3.5 01:16:14 10° NNE 01:21:11 40° E 01:25:41 12° SSE
SL-16 R/B 2.7 01:17:22 10° NW 01:22:40 41° WSW 01:26:33 17° S
Cosmos 1869 3.0 01:23:28 10° NNW 01:27:11 86° W 01:29:53 18° S
Cosmos 1603 4.3 01:21:58 10° NNW 01:27:40 59° NE 01:33:20 10° SE
Cosmos 2237 Rocket 4.2 01:25:59 10° WNW 01:28:20 13° W 01:30:41 10° WSW
GEOS 3 Rocket 3.8 01:27:49 10° NE 01:33:00 70° NW 01:37:52 11° WSW
CZ-4C R/B 3.5 01:30:49 10° W 01:35:32 38° NNW 01:41:29 10° NE
Cosmos 2082 3.7 01:31:20 17° SSW 01:35:43 87° ESE 01:41:23 10° NNE
Cosmos 2218 Rocket 4.1 01:31:20 15° S 01:36:39 79° E 01:42:51 10° NNE
CZ-2D R/B 3.1 01:31:41 10° NNE 01:36:43 39° E 01:41:37 10° SSE
Cosmos 1943 3.2 01:31:08 10° NNW 01:36:47 86° WSW 01:42:24 10° SSE
Cosmos 2227 Rocket 3.1 01:32:03 10° WSW 01:37:27 43° NW 01:42:53 10° NNE
CZ-2C R/B 3.0 01:33:10 10° SSE 01:38:25 68° ENE 01:43:49 10° N
Cosmos 1437 Rocket 4.3 01:35:44 10° SSE 01:39:01 28° E 01:42:17 10° NNE
Cosmos 1825 4.4 01:39:24 10° W 01:40:49 12° WNW 01:42:13 10° NW
Cosmos 2366 rocket 4.0 01:37:03 15° S 01:42:25 88° E 01:48:42 10° N
Cosmos 372 Rocket 4.0 01:40:51 17° SSW 01:44:58 86° WNW 01:50:14 10° NNE
MOZ.5/SAFIR/RUBIN 5/SL-8 3.9 01:43:48 15° S 01:47:38 58° W 01:52:13 10° NNW
Meteor 1-11 4.4 01:49:40 15° SSW 01:54:29 67° WNW 02:00:18 10° N
NPP 3.8 01:50:48 10° NNE 01:56:13 73° ESE 02:01:12 12° S
ADEOS II 3.1 01:53:12 10° NNE 01:58:09 40° E 02:03:04 10° SSE
Cosmos 2297 Rocket 4.1 01:53:42 10° W 01:58:10 23° NW 02:02:40 10° NNE
Cosmos 2228 3.1 01:55:43 10° NNW 02:00:00 63° W 02:03:53 12° S
Cosmos 2219 3.9 01:55:55 11° SW 02:01:11 48° NW 02:06:39 10° NNE
Aureole 1 Rocket 4.0 01:58:23 12° WSW 02:01:36 38° NW 02:06:02 10° NNE
Cosmos 1544 Rocket 4.0 01:57:29 10° NNW 02:01:46 46° W 02:05:22 14° SSW
Cosmos 1937 Rocket 3.6 01:59:45 14° SSW 02:04:16 72° WNW 02:09:32 10° NNE
NOSS 3-2 (A) 3.5 01:59:43 11° SW 02:04:58 72° NW 02:11:30 10° NE
Cosmos 1606 3.5 02:01:47 10° NNW 02:04:59 31° W 02:07:22 15° SSW
H-2A R/B 3.4 02:03:56 10° NNE 02:07:56 84° ESE 02:11:32 13° SSW
ALOS 3.9 02:04:41 10° NE 02:08:42 29° E 02:12:42 10° SSE
Cosmos 1898 Rocket 4.0 02:04:35 12° SW 02:09:11 51° WNW 02:14:15 10° NNE
SL-16 R/B 3.0 02:04:21 10° SSE 02:10:32 67° ENE 02:16:43 10° NNW
Cosmos 2227 4.4 02:05:48 13° SSW 02:11:00 69° ESE 02:16:45 10° NE
NOSS 3-2 (C) 3.4 02:06:42 13° SSW 02:11:27 73° SE 02:17:49 10° NE
SL-8 Rocket 4.4 02:07:58 13° SSW 02:13:24 52° WNW 02:19:28 10° N
Resurs 1-4 Rocket 2.2 02:08:23 10° NNE 02:13:41 79° ESE 02:18:58 10° SSW
Cosmos 1812 3.9 02:19:31 10° N 02:22:55 39° ENE 02:26:17 10° SE
BlueWalker 3 2.1 02:21:56 10° WNW 02:25:42 74° N 02:29:26 10° E
Cosmos 2263 Rocket 3.0 02:24:12 10° WSW 02:29:30 42° NW 02:34:48 10° NNE
Cosmos 1727 Rocket 4.2 02:23:28 10° NNW 02:29:41 62° W 02:35:55 10° S
Cosmos 921 Rocket 3.0 02:29:53 10° NNW 02:34:06 61° WSW 02:38:12 10° S
COSMOS 2441 4.4 02:30:16 10° NNE 02:35:06 88° WNW 02:39:56 10° SSW
Cosmos 1606 Rocket 3.6 02:32:51 10° NNW 02:37:17 70° W 02:41:41 10° S
Cosmos 724 4.2 02:38:00 10° NW 02:43:49 77° SW 02:49:38 10° SSE
Cosmos 1461 3.6 02:42:52 10° WSW 02:46:39 44° NW 02:50:23 10° NNE
Cosmos 1536 Rocket 4.3 02:43:36 10° SW 02:47:48 41° WNW 02:52:01 10° N
Cosmos 1844 Rocket 2.8 02:42:59 10° SSW 02:48:34 77° ESE 02:54:09 10° NNE
USA 234 3.5 02:42:54 10° ESE 02:49:26 79° NNE 02:56:01 10° WNW
Cosmos 1726 Rocket 3.6 02:48:02 10° NNW 02:52:28 65° W 02:56:49 10° S
Cosmos 2058 3.8 02:48:58 10° SSE 02:52:52 47° E 02:56:47 10° NNE
Cosmos 1238 Rocket 3.2 02:51:15 10° N 02:54:44 52° ENE 02:57:48 10° SSE
Meteor 1-28 Rocket 3.4 02:54:37 10° S 02:58:01 45° W 03:01:29 10° NNW
IDEFIX/ARIANE 42P 3.5 02:55:53 10° N 03:00:40 37° WNW 03:05:26 10° SW
